When you browse on this site, cookies collect data to enhance your experience and personalize the content and advertising you see.
Visit our Privacy Policy to learn more. By continuing to use the site, you agree to this use of cookies and data.
  • en France
  • Liste des pays
  • À 7 jours
  • Température de l'eau
  • Carte satellitaire
  • Carte météo
  • Widgets météo
  • user-avatar
    Se connecter

    Météo par heure à Hamar

    Ce jour, 24 Janvier, Jeudi

    Heure Température Précipitation Vent Pression Humidité
    00:00 -13°C° 0 mm 3 m/s 590 mmHg 90%
    01:00 -13°C° 0 mm 3 m/s 590 mmHg 90%
    02:00 -13°C° 0 mm 3 m/s 590 mmHg 89%
    03:00 -10°C° 0 mm 3 m/s 590 mmHg 89%
    04:00 -12°C° 0 mm 3 m/s 590 mmHg 88%
    05:00 -12°C° 0 mm 3 m/s 589 mmHg 87%
    06:00 -12°C° 0 mm 2 m/s 589 mmHg 87%
    07:00 -10°C° 0 mm 2 m/s 590 mmHg 84%
    08:00 -8°C° 0 mm 2 m/s 590 mmHg 81%
    09:00 -7°C° 0 mm 2 m/s 591 mmHg 77%
    10:00 -6°C° 0 mm 2 m/s 591 mmHg 76%
    11:00 -4°C° 0 mm 2 m/s 592 mmHg 75%
    12:00 -4°C° 0 mm 3 m/s 592 mmHg 73%
    13:00 -4°C° 0 mm 3 m/s 591 mmHg 74%
    14:00 -4°C° 0 mm 3 m/s 591 mmHg 75%
    15:00 -5°C° 0 mm 3 m/s 590 mmHg 77%
    16:00 -6°C° 0 mm 3 m/s 589 mmHg 75%
    17:00 -8°C° 0 mm 3 m/s 589 mmHg 74%
    18:00 -10°C° 0 mm 3 m/s 588 mmHg 73%
    19:00 -10°C° 0 mm 3 m/s 588 mmHg 70%
    20:00 -10°C° 0 mm 3 m/s 587 mmHg 67%
    21:00 -9°C° 0 mm 3 m/s 587 mmHg 63%
    22:00 -9°C° 0 mm 3 m/s 587 mmHg 64%
    23:00 -9°C° 0 mm 3 m/s 587 mmHg 64%

    Demain, 25 Janvier, Vendredi

    Heure Température Précipitation Vent Pression Humidité
    00:00 -9°C° 0 mm 3 m/s 587 mmHg 64%
    01:00 -9°C° 0 mm 3 m/s 587 mmHg 65%
    02:00 -8°C° 0 mm 3 m/s 587 mmHg 65%
    03:00 -8°C° 0 mm 3 m/s 587 mmHg 65%
    04:00 -8°C° 0 mm 3 m/s 587 mmHg 68%
    05:00 -8°C° 0 mm 3 m/s 587 mmHg 71%
    06:00 -8°C° 0 mm 3 m/s 587 mmHg 73%
    07:00 -6°C° 0 mm 2 m/s 588 mmHg 75%
    08:00 -5°C° 0 mm 2 m/s 588 mmHg 76%
    09:00 -2°C° 0 mm 1 m/s 589 mmHg 77%
    10:00 -1°C° 0 mm 1 m/s 589 mmHg 75%
    11:00 -1°C° 0 mm 1 m/s 589 mmHg 72%
    12:00 0°C° 0 mm 1 m/s 590 mmHg 70%
    13:00 0°C° 0 mm 1 m/s 590 mmHg 70%
    14:00 +1°C° 0 mm 1 m/s 590 mmHg 71%
    15:00 +1°C° 0 mm 1 m/s 590 mmHg 72%
    16:00 -1°C° 0 mm 1 m/s 590 mmHg 72%
    17:00 -4°C° 0 mm 2 m/s 589 mmHg 73%
    18:00 -6°C° 0 mm 2 m/s 589 mmHg 73%
    19:00 -6°C° 0 mm 2 m/s 589 mmHg 68%
    20:00 -6°C° 0 mm 2 m/s 589 mmHg 63%
    21:00 -7°C° 0 mm 2 m/s 589 mmHg 58%
    22:00 -7°C° 0 mm 2 m/s 589 mmHg 54%
    23:00 -7°C° 0 mm 2 m/s 589 mmHg 51%

    Après-demain, 26 Janvier, Samedi

    Heure Température Précipitation Vent Pression Humidité
    00:00 -8°C° 0 mm 2 m/s 589 mmHg 47%
    01:00 -8°C° 0 mm 2 m/s 590 mmHg 50%
    02:00 -8°C° 0 mm 2 m/s 590 mmHg 52%
    03:00 -8°C° 0 mm 2 m/s 590 mmHg 55%
    04:00 -8°C° 0 mm 2 m/s 590 mmHg 58%
    05:00 -8°C° 0 mm 2 m/s 590 mmHg 61%
    06:00 -8°C° 0 mm 2 m/s 590 mmHg 64%
    07:00 -7°C° 0 mm 2 m/s 590 mmHg 65%
    08:00 -6°C° 0 mm 2 m/s 591 mmHg 67%
    09:00 -5°C° 0 mm 2 m/s 592 mmHg 68%
    10:00 -5°C° 0 mm 3 m/s 592 mmHg 68%
    11:00 -4°C° 0 mm 3 m/s 592 mmHg 68%
    12:00 -3°C° 0 mm 4 m/s 592 mmHg 68%
    13:00 -4°C° 0 mm 4 m/s 591 mmHg 69%
    14:00 -4°C° 0 mm 4 m/s 590 mmHg 71%
    15:00 -4°C° 0 mm 4 m/s 590 mmHg 72%
    16:00 -7°C° 0 mm 4 m/s 589 mmHg 75%
    17:00 -9°C° 0 mm 4 m/s 588 mmHg 78%
    18:00 -9°C° 0 mm 3 m/s 588 mmHg 80%
    19:00 -10°C° 0 mm 4 m/s 588 mmHg 82%
    20:00 -10°C° 0 mm 4 m/s 588 mmHg 83%
    21:00 -9°C° 0 mm 4 m/s 588 mmHg 84%
    22:00 -9°C° 0.1 mm 4 m/s 588 mmHg 85%
    23:00 -9°C° 0.1 mm 4 m/s 588 mmHg 86%

    27 Janvier, Dimanche

    Heure Température Précipitation Vent Pression Humidité
    00:00 -8°C° 0.1 mm 4 m/s 588 mmHg 87%
    01:00 -8°C° 0.2 mm 4 m/s 588 mmHg 88%
    02:00 -8°C° 0.2 mm 4 m/s 588 mmHg 89%
    03:00 -7°C° 0.2 mm 4 m/s 589 mmHg 89%
    04:00 -7°C° 0.2 mm 4 m/s 588 mmHg 90%
    05:00 -7°C° 0.2 mm 4 m/s 588 mmHg 90%
    06:00 -7°C° 0.2 mm 4 m/s 588 mmHg 90%
    07:00 -5°C° 0.1 mm 4 m/s 588 mmHg 90%
    08:00 -5°C° 0.1 mm 4 m/s 589 mmHg 89%
    09:00 -5°C° 0.1 mm 4 m/s 589 mmHg 88%
    10:00 -4°C° 0 mm 4 m/s 588 mmHg 87%
    11:00 -3°C° 0 mm 4 m/s 588 mmHg 85%
    12:00 -4°C° 0 mm 5 m/s 588 mmHg 84%
    13:00 -3°C° 0.4 mm 4 m/s 588 mmHg 86%
    14:00 -3°C° 0.4 mm 4 m/s 587 mmHg 88%
    15:00 -4°C° 0.4 mm 4 m/s 587 mmHg 89%
    16:00 -4°C° 0.7 mm 3 m/s 586 mmHg 90%
    17:00 -4°C° 0.7 mm 3 m/s 586 mmHg 91%
    18:00 -5°C° 0.7 mm 3 m/s 586 mmHg 92%
    19:00 -5°C° 0.4 mm 3 m/s 586 mmHg 92%
    20:00 -5°C° 0.4 mm 3 m/s 586 mmHg 92%
    21:00 -5°C° 0.4 mm 3 m/s 586 mmHg 91%
    22:00 -5°C° 0.2 mm 4 m/s 586 mmHg 92%
    23:00 -5°C° 0.2 mm 4 m/s 587 mmHg 92%

    28 Janvier, Lundi

    Heure Température Précipitation Vent Pression Humidité
    00:00 -5°C° 0.2 mm 4 m/s 587 mmHg 92%
    01:00 -5°C° 0.1 mm 4 m/s 587 mmHg 92%
    02:00 -5°C° 0.1 mm 3 m/s 587 mmHg 92%
    03:00 -6°C° 0.1 mm 3 m/s 587 mmHg 93%
    04:00 -6°C° 0 mm 3 m/s 587 mmHg 92%
    05:00 -7°C° 0 mm 3 m/s 587 mmHg 92%
    06:00 -8°C° 0 mm 3 m/s 587 mmHg 91%
    07:00 -7°C° 0 mm 3 m/s 588 mmHg 88%
    08:00 -7°C° 0 mm 3 m/s 588 mmHg 85%
    09:00 -6°C° 0 mm 3 m/s 589 mmHg 82%
    10:00 -5°C° 0 mm 3 m/s 589 mmHg 78%
    11:00 -4°C° 0 mm 3 m/s 590 mmHg 75%
    12:00 -2°C° 0 mm 3 m/s 590 mmHg 71%
    13:00 -2°C° 0 mm 3 m/s 590 mmHg 71%
    14:00 -2°C° 0 mm 2 m/s 589 mmHg 70%
    15:00 -2°C° 0 mm 2 m/s 589 mmHg 70%
    16:00 -5°C° 0 mm 2 m/s 588 mmHg 62%
    17:00 -8°C° 0 mm 3 m/s 588 mmHg 55%
    18:00 -10°C° 0 mm 3 m/s 587 mmHg 48%
    19:00 -9°C° 0 mm 3 m/s 587 mmHg 47%
    20:00 -8°C° 0 mm 2 m/s 588 mmHg 46%
    21:00 -8°C° 0 mm 2 m/s 588 mmHg 45%
    22:00 -7°C° 0 mm 2 m/s 588 mmHg 46%
    23:00 -7°C° 0 mm 2 m/s 588 mmHg 48%

    29 Janvier, Mardi

    Heure Température Précipitation Vent Pression Humidité
    00:00 -7°C° 0 mm 2 m/s 588 mmHg 50%
    01:00 -7°C° 0 mm 2 m/s 588 mmHg 49%
    02:00 -7°C° 0 mm 2 m/s 588 mmHg 48%
    03:00 -7°C° 0 mm 2 m/s 589 mmHg 48%
    04:00 -6°C° 0 mm 2 m/s 589 mmHg 49%
    05:00 -6°C° 0 mm 2 m/s 589 mmHg 50%
    06:00 -6°C° 0 mm 2 m/s 589 mmHg 51%
    07:00 -5°C° 0 mm 2 m/s 589 mmHg 56%
    08:00 -5°C° 0 mm 2 m/s 590 mmHg 61%
    09:00 -4°C° 0 mm 2 m/s 591 mmHg 66%
    10:00 -2°C° 0 mm 1 m/s 591 mmHg 65%
    11:00 -1°C° 0 mm 1 m/s 592 mmHg 64%
    12:00 0°C° 0 mm 1 m/s 592 mmHg 63%
    13:00 0°C° 0 mm 1 m/s 592 mmHg 65%
    14:00 0°C° 0 mm 1 m/s 592 mmHg 67%
    15:00 0°C° 0 mm 1 m/s 592 mmHg 69%
    16:00 -2°C° 0 mm 1 m/s 592 mmHg 73%
    17:00 -3°C° 0 mm 1 m/s 591 mmHg 78%
    18:00 -6°C° 0 mm 1 m/s 591 mmHg 82%
    19:00 -6°C° 0 mm 1 m/s 591 mmHg 78%
    20:00 -7°C° 0 mm 1 m/s 591 mmHg 75%
    21:00 -7°C° 0 mm 1 m/s 591 mmHg 72%
    22:00 -7°C° 0 mm 1 m/s 592 mmHg 67%
    23:00 -8°C° 0 mm 2 m/s 592 mmHg 62%
    Voir plus